Greenville Downtown, SC

12:38 AM EST on November 25, 2017 (GMT -0500)
Greenville Downtown

Weather History for KGMU - June, 2012

Change the Weather History Date:

Wednesday, June 6, 2012

  Actual Average Record
Temperature  
Mean Temperature 66 °F -  
Max Temperature 73 °F 81 °F 95 °F (2008)
Min Temperature 62 °F 62 °F 55 °F (1997)
Cooling Degree Days 2    
Growing Degree Days 16 (Base 50)    
Moisture  
Dew Point 59 °F    
Average Humidity 80    
Maximum Humidity 94    
Minimum Humidity 57    
Precipitation  
Precipitation 0.01 in - - ()
Sea Level Pressure  
Sea Level Pressure 29.93 in    
Wind  
Wind Speed 5 mph (ENE)    
Max Wind Speed 12 mph    
Max Gust Speed 18 mph    
Visibility 9 miles    
Events      
Averages and records for this station are not official NWS values.
T = Trace of Precipitation, MM = Missing Value Source: NWS Daily Summary

Daily Weather History Graph

Daily Weather History Graph

Search for Another Location

Airport or City:

Trip Planner

Search our weather history database for the weather conditions in past years. The results will help you decide how hot, cold, wet, or windy it might be!

Date:

Astronomy

Jun. 06, 2012 Rise Set
Actual Time 6:15 AM EDT 8:40 PM EDT
Civil Twilight 5:46 AM EDT 9:10 PM EDT
Nautical Twilight 5:10 AM EDT 9:46 PM EDT
Astronomical Twilight 4:30 AM EDT 10:26 PM EDT
Moon 10:55 PM EDT (6/6) 8:33 AM EDT (6/6)
Length of Visible Light 15h 23m
Length of Day
14h 25m
Waning Gibbous, 93% of the Moon is Illuminated
Jun 6
Waning Gibbous
Jun 11
Last Quarter
Jun 19
New
Jun 26
First Quarter
Jul 3
Full

Hourly Weather History & Observations

Time (EDT) Temp. Dew Point Humidity Pressure Visibility Wind Dir Wind Speed Gust Speed Precip Events Conditions
12:53 AM 66.0 °F 60.1 °F 81% 29.87 in 10.0 mi Calm Calm - N/A   Overcast
1:53 AM 64.9 °F 61.0 °F 87% 29.86 in 10.0 mi Calm Calm - N/A   Overcast
2:53 AM 64.9 °F 60.1 °F 84% 29.86 in 10.0 mi Calm Calm - N/A   Overcast
3:53 AM 64.9 °F 60.1 °F 84% 29.86 in 10.0 mi Calm Calm - N/A   Overcast
4:53 AM 64.9 °F 59.0 °F 81% 29.86 in 10.0 mi SE 4.6 mph - N/A   Overcast
5:53 AM 64.0 °F 57.9 °F 80% 29.87 in 10.0 mi SSE 3.5 mph - N/A   Overcast
6:53 AM 64.0 °F 60.1 °F 87% 29.88 in 10.0 mi ENE 3.5 mph - N/A   Mostly Cloudy
7:03 AM 64.4 °F 60.8 °F 88% 29.90 in 10.0 mi NE 4.6 mph - N/A   Mostly Cloudy
7:35 AM 62.6 °F 60.8 °F 94% 29.91 in 7.0 mi NNE 8.1 mph - N/A   Overcast
7:46 AM 62.6 °F 60.8 °F 94% 29.91 in 6.0 mi NE 8.1 mph - N/A   Overcast
7:53 AM 64.0 °F 61.0 °F 90% 29.89 in 7.0 mi NNE 8.1 mph - N/A   Overcast
8:08 AM 64.4 °F 60.8 °F 88% 29.92 in 8.0 mi NE 9.2 mph - N/A   Overcast
8:15 AM 64.4 °F 60.8 °F 88% 29.92 in 8.0 mi NE 9.2 mph - N/A   Overcast
8:22 AM 64.4 °F 60.8 °F 88% 29.92 in 8.0 mi NE 8.1 mph - N/A   Overcast
8:53 AM 64.9 °F 60.1 °F 84% 29.91 in 9.0 mi NE 8.1 mph - N/A   Overcast
8:56 AM 64.4 °F 60.8 °F 88% 29.93 in 10.0 mi NE 11.5 mph - N/A   Overcast
9:53 AM 64.9 °F 60.1 °F 84% 29.93 in 10.0 mi ENE 9.2 mph - N/A   Overcast
10:53 AM 63.0 °F 60.1 °F 90% 29.95 in 6.0 mi NE 10.4 mph - 0.00 in   Overcast
11:53 AM 63.0 °F 59.0 °F 87% 29.96 in 10.0 mi ENE 8.1 mph 18.4 mph 0.01 in   Overcast
12:41 PM 62.6 °F 57.2 °F 82% 29.98 in 10.0 mi ENE 11.5 mph - N/A   Overcast
12:53 PM 64.0 °F 57.9 °F 80% 29.96 in 10.0 mi NE 9.2 mph - N/A   Overcast
1:34 PM 66.2 °F 57.2 °F 73% 29.98 in 10.0 mi ENE 9.2 mph - N/A   Overcast
1:53 PM 66.9 °F 57.0 °F 70% 29.96 in 10.0 mi East 5.8 mph - N/A   Overcast
2:53 PM 68.0 °F 57.0 °F 68% 29.95 in 10.0 mi East 4.6 mph - N/A   Overcast
3:53 PM 70.0 °F 57.0 °F 63% 29.94 in 10.0 mi NE 8.1 mph - N/A   Overcast
4:15 PM 71.6 °F 57.2 °F 60% 29.96 in 10.0 mi Variable 6.9 mph - N/A   Mostly Cloudy
6:53 PM 71.1 °F 55.0 °F 57% 29.96 in 10.0 mi East 4.6 mph - N/A   Mostly Cloudy
7:53 PM 70.0 °F 55.9 °F 61% 29.97 in 10.0 mi East 5.8 mph - N/A   Mostly Cloudy
8:53 PM 70.0 °F 57.0 °F 63% 29.98 in 10.0 mi East 5.8 mph - N/A   Overcast
9:53 PM 66.0 °F 59.0 °F 78% 29.99 in 10.0 mi North 8.1 mph - N/A   Scattered Clouds
10:53 PM 64.9 °F 59.0 °F 81% 30.01 in 10.0 mi NNE 6.9 mph - N/A   Mostly Cloudy
11:53 PM 64.9 °F 60.1 °F 84% 30.02 in 10.0 mi NNE 8.1 mph - N/A   Overcast